User: anonymous   Login
Location: La Tine
(46.4708°N, 7.0525°E)
Time: 03:32:07
(UTC+00:00)
Language:

HJ-1C - Orbit

View from above orbital plane
View from above orbital plane
View from above satellite
View from above satellite

Ground track
Ground track

The orbit data is extracted from the following two-line orbital elements,

1 38997U 12064A   20332.89393318 +.00004724 +00000-0 +10878-3 0  9997
2 38997 097.1402 359.9023 0010980 125.7507 335.6275 15.43039194450983
Epoch (UTC): 27 November 2020 21:27:15
Eccentricity: 0.0010980
inclination: 97.1402°
perigee height: 429 km
apogee height: 444 km
right ascension of ascending node: 359.9023°
argument of perigee: 125.7507°
revolutions per day: 15.43039194
mean anomaly at epoch: 335.6275°
orbit number at epoch: 45098

The dashed part of the orbit path shows where the satellite is in the earth's shadow,  

DLR